Theta_e
325 321 318 315 315 317 318 318 317 317 317 315 313 314 314 313 313 313 314 315 315 315 315 316 317 318 319 320 322 323 324 325 325 323 323 324 325 326 326 327 326 327 326 326 324 323 324 324 325 325 325 325 325 325 325 325 325 325 325 325 324 323 323
325 321 318 316 316 317 318 318 318 318 318 317 314 313 313 312 312 313 314 315 315 315 316 318 319 317 317 319 321 322 323 324 324 324 323 324 325 326 326 326 326 326 326 325 325 324 323 324 324 324 324 325 324 325 325 325 325 325 324 323 323 323 323
322 320 319 317 317 319 320 320 320 320 321 321 318 314 314 315 316 316 316 317 316 317 318 319 318 316 317 319 321 322 323 324 324 324 324 324 325 326 325 325 325 325 325 325 324 324 323 323 324 324 324 324 324 324 324 324 324 323 322 322 321 322 322
318 317 317 315 316 319 320 321 321 322 322 321 319 315 315 317 318 318 318 317 316 316 315 315 315 315 317 319 320 321 323 323 323 323 324 323 324 324 324 325 325 324 324 324 324 324 324 323 324 324 324 323 323 322 321 320 320 319 319 319 319 319 320
316 314 313 311 313 316 318 319 321 321 320 320 318 313 313 317 317 317 317 316 315 313 311 312 314 316 317 318 319 321 322 322 323 323 323 323 323 323 324 324 324 324 324 324 324 324 324 323 323 323 323 322 320 319 318 318 317 317 317 317 317 318 318
318 312 311 310 312 314 315 316 318 318 318 318 315 311 314 318 318 317 317 316 313 309 310 313 314 316 318 319 320 321 322 322 323 323 323 323 323 323 323 323 323 323 324 324 324 324 324 323 323 322 320 319 318 318 318 318 318 318 318 317 317 317 317
320 313 312 311 312 314 315 316 314 314 315 314 311 312 317 319 319 318 317 314 310 306 309 312 314 316 319 321 322 322 322 322 322 323 322 322 322 322 322 322 322 322 323 324 324 324 324 324 323 321 319 318 317 317 317 317 317 318 318 319 319 319 319
319 314 315 315 314 315 317 318 313 311 312 311 310 314 318 319 318 318 316 313 308 305 306 308 311 315 320 322 323 322 321 320 320 321 321 321 322 321 322 322 322 322 322 323 323 323 324 323 322 320 319 318 316 315 315 315 315 316 317 318 318 319 319
318 317 318 319 319 318 318 319 315 311 311 310 309 312 316 318 318 318 316 312 309 307 306 306 308 312 318 321 322 321 320 318 318 318 319 320 320 320 321 322 322 322 322 322 322 323 323 322 321 320 319 317 315 314 314 313 312 313 314 316 316 317 316
321 321 320 321 322 319 318 319 317 311 308 307 307 309 314 317 318 317 315 312 310 309 307 305 305 307 312 317 318 319 319 317 317 317 318 318 318 318 320 322 321 321 321 322 322 322 322 320 320 319 317 316 314 313 313 312 311 310 311 312 313 314 313
325 324 323 322 320 318 319 321 320 314 308 306 307 308 310 313 316 316 314 312 311 310 307 305 305 305 307 310 312 312 312 312 314 316 316 316 317 318 319 321 321 320 319 320 321 321 320 319 319 318 317 316 316 315 313 312 311 309 308 309 311 312 311
327 326 325 321 317 318 321 321 318 313 308 307 307 307 307 308 310 312 312 312 311 309 306 304 305 305 305 306 307 306 306 306 308 312 314 316 318 319 319 319 320 320 319 320 320 320 319 318 318 317 317 317 316 316 314 313 313 311 308 307 308 309 309
327 326 323 319 317 320 322 319 314 310 308 308 308 306 306 306 307 309 310 310 309 307 305 304 304 304 304 305 306 305 305 305 306 310 314 317 318 319 319 318 319 320 320 320 319 319 319 318 318 318 318 317 317 317 316 314 314 312 308 307 307 308 308
326 323 321 319 319 320 320 317 312 309 308 307 307 305 305 305 306 307 308 307 306 304 303 304 304 305 306 307 307 307 306 306 306 309 314 317 318 319 319 317 317 319 319 319 318 317 317 316 317 317 317 317 317 318 317 314 314 313 310 308 308 308 308
324 322 321 320 320 320 319 316 312 309 307 307 305 304 304 304 305 306 306 305 304 304 305 306 306 307 308 309 309 309 308 308 308 308 310 314 315 317 319 318 317 317 317 318 317 316 315 315 315 316 316 317 317 318 318 315 313 314 312 309 308 308 309
323 322 321 320 321 321 320 317 315 310 307 306 305 304 304 304 304 305 305 305 305 305 306 307 308 308 309 309 309 309 309 309 309 309 309 309 311 313 315 317 317 317 317 317 317 317 316 316 316 315 315 316 316 317 319 316 313 313 313 311 309 308 309
323 322 321 322 322 320 320 319 316 311 307 306 305 305 305 305 305 305 306 307 307 307 308 308 309 309 309 309 309 309 309 309 310 310 309 309 309 310 312 314 315 316 316 315 315 316 315 314 314 314 314 315 316 318 318 315 313 313 313 311 310 308 310
322 321 322 322 320 319 320 319 315 310 308 307 305 306 307 306 306 307 307 308 308 308 308 308 308 309 309 310 311 312 313 313 314 314 312 311 310 309 310 312 313 314 314 314 313 313 313 313 313 314 314 315 316 317 316 314 314 314 313 312 310 310 311
321 321 323 322 320 319 317 314 312 311 311 310 307 306 307 307 308 308 308 309 309 309 309 309 309 309 309 310 311 314 317 317 317 316 316 315 314 312 311 312 312 312 313 313 313 313 313 313 314 314 314 314 314 314 314 314 315 315 314 313 312 312 312
320 321 322 319 316 315 312 311 313 314 314 312 309 307 307 307 308 308 308 309 310 310 310 310 311 311 312 312 312 314 317 318 317 316 316 317 316 316 316 316 316 315 313 313 313 313 313 313 313 314 314 314 314 314 314 314 314 315 315 314 314 313 312
320 320 319 315 312 312 311 313 317 317 315 313 311 309 308 307 307 308 308 310 311 312 313 313 313 314 316 316 315 315 316 317 318 317 317 317 317 317 317 318 319 318 317 316 314 314 314 314 314 313 314 314 314 314 315 315 315 316 316 315 314 313 313
320 320 318 315 312 312 314 317 317 315 313 312 312 311 309 307 308 309 310 312 314 315 316 317 318 318 319 319 318 317 317 317 318 318 317 317 317 318 318 318 319 319 319 319 317 316 316 316 316 315 314 314 315 315 315 316 316 316 316 316 315 315 315
321 319 316 313 311 314 318 319 315 313 313 313 312 311 309 308 310 312 314 316 317 317 319 320 320 320 320 320 319 319 318 318 319 318 318 318 318 318 318 318 319 319 320 319 319 318 318 318 318 317 315 315 315 315 315 316 316 316 316 316 316 316 316
321 319 317 315 315 318 318 316 313 314 314 313 311 309 308 308 310 313 315 317 317 317 318 319 320 321 320 319 319 319 319 318 319 319 319 319 318 317 317 317 318 318 318 318 318 319 319 319 319 318 316 316 315 315 315 315 315 315 315 316 316 316 316
321 321 321 319 318 318 316 314 313 313 311 310 308 307 307 308 310 313 315 317 316 315 316 318 320 320 320 319 319 319 319 318 318 319 320 320 319 318 317 317 317 317 317 317 317 318 319 319 319 319 318 317 316 315 315 315 315 315 315 316 316 316 315
321 321 320 319 319 318 318 317 315 313 312 310 307 307 308 310 312 315 318 318 317 316 316 318 320 320 320 320 320 319 319 318 317 317 318 319 319 319 318 317 317 317 317 317 317 318 319 319 319 319 318 318 317 316 316 315 315 315 314 313 313 313 312
320 320 320 320 320 320 320 320 318 317 316 314 311 311 312 312 314 317 318 319 319 318 318 318 320 320 320 320 320 319 318 317 316 317 317 317 318 318 317 316 316 317 318 317 318 318 318 318 318 318 318 318 317 315 312 311 309 308 307 306 306 306 307
321 321 321 321 320 321 321 320 319 319 319 318 316 315 316 317 317 318 319 320 320 319 319 319 320 320 320 320 320 319 318 317 317 317 316 316 316 316 316 315 316 317 318 317 317 317 317 318 318 318 317 316 312 308 306 304 304 303 303 303 303 304 304
322 321 322 321 320 320 320 319 319 319 319 320 319 317 318 319 319 320 320 319 319 319 319 319 320 319 320 319 319 319 318 318 318 317 317 316 316 316 316 316 317 317 317 317 317 317 317 317 316 314 312 309 306 304 303 303 303 303 303 303 303 303 303
321 321 321 321 321 321 320 320 320 319 319 320 320 319 318 318 319 319 318 318 317 318 318 319 319 319 319 319 319 319 318 318 317 317 316 316 316 315 316 317 317 317 315 315 314 314 314 313 312 309 308 307 305 303 302 302 302 303 304 304 304 304 303
319 319 320 320 320 320 320 320 320 320 319 320 320 320 319 319 319 319 320 319 319 319 319 319 319 319 319 319 319 318 318 317 317 317 317 316 315 315 317 317 317 316 314 313 312 311 310 309 309 308 307 307 305 302 301 302 303 303 304 304 304 304 304
315 315 316 316 317 318 319 319 319 320 319 319 319 319 319 319 319 319 320 319 319 319 319 318 318 318 318 317 317 317 316 316 316 317 317 316 315 315 316 317 316 315 314 314 313 312 310 310 309 307 305 304 302 301 302 302 303 303 304 305 306 306 306
312 312 313 313 314 315 316 317 317 317 317 317 317 317 317 317 317 317 317 317 317 317 316 316 316 316 316 316 316 316 316 316 316 317 316 316 315 315 315 316 316 315 315 315 314 313 313 311 309 305 302 301 301 301 301 302 302 303 304 306 306 307 306
310 311 311 311 312 312 313 314 314 315 315 315 315 315 315 315 314 314 314 314 314 314 315 315 315 315 315 316 315 315 315 315 315 316 316 316 315 315 315 315 315 315 315 315 314 314 313 309 304 302 301 301 300 300 301 301 302 302 303 304 305 304 304
310 310 310 310 310 311 311 311 312 313 314 314 314 314 314 314 313 313 313 313 313 313 314 314 314 314 315 315 314 314 314 313 313 313 314 314 314 313 314 314 315 315 314 314 314 313 309 304 302 301 300 300 300 300 300 300 300 300 301 301 301 301 301
309 310 310 310 310 311 311 311 311 311 312 312 312 312 312 313 313 314 314 313 313 313 314 314 313 312 313 314 314 314 313 313 312 311 310 310 309 310 312 314 314 313 312 312 311 309 304 302 301 301 300 300 300 300 300 299 299 299 299 299 299 300 300
308 308 309 309 309 310 310 311 311 311 311 311 311 310 310 311 312 312 312 312 312 312 313 314 314 313 313 313 313 313 312 311 308 306 306 306 306 310 313 313 312 310 309 309 308 304 302 303 303 301 300 300 300 299 299 299 298 298 298 298 299 299 299
Wind_Speed
16 16 15 14 14 14 13 12 11 10 8 7 8 10 10 9 9 9 8 7 6 7 6 6 6 6 6 7 7 7 6 7 8 6 6 10 12 12 11 12 10 6 5 8 7 7 10 12 9 7 7 6 6 4 3 2 2 2 2 1 1 2 1
15 14 14 14 15 14 13 12 10 9 7 7 7 10 10 9 9 9 9 7 6 6 6 5 5 5 6 7 7 7 7 8 9 8 6 8 11 11 10 10 9 7 8 9 7 6 9 12 13 11 10 8 7 6 4 4 4 4 4 3 3 4 3
16 15 15 15 16 14 13 12 10 8 7 5 5 8 9 9 8 8 7 6 5 6 6 6 6 6 7 7 7 6 7 9 9 9 8 8 10 10 10 9 8 9 11 10 9 8 9 11 13 13 12 10 10 10 8 7 6 6 6 6 6 6 5
15 16 16 16 17 15 13 12 11 9 7 5 3 5 9 9 8 7 6 4 4 4 5 6 6 7 8 8 6 6 6 7 8 8 8 9 10 10 10 9 9 8 9 8 8 9 10 11 14 16 14 12 13 13 11 10 9 8 8 8 8 8 8
13 15 16 16 15 15 13 12 11 9 7 5 3 4 8 10 8 7 5 3 2 3 4 6 7 8 9 8 8 7 6 7 7 8 8 9 9 9 9 9 9 8 7 6 6 8 9 10 14 19 17 15 16 16 14 13 13 12 11 11 11 11 10
12 14 14 14 13 12 11 10 8 6 5 4 4 5 8 9 8 6 5 2 2 3 5 7 9 9 9 9 9 8 8 8 8 8 8 8 8 7 7 8 9 9 8 6 7 9 9 11 16 20 20 17 18 18 16 14 14 14 13 12 12 12 12
12 13 13 12 11 11 9 7 5 4 4 3 5 8 9 8 7 6 4 2 2 5 7 8 10 10 11 11 10 9 9 9 9 9 9 8 8 7 6 6 8 9 9 9 9 9 11 15 19 21 21 20 18 17 16 13 12 12 12 12 12 12 12
12 12 12 11 10 10 9 7 6 5 5 5 7 10 10 9 8 7 5 3 3 7 8 9 11 12 13 12 12 11 9 9 8 9 8 8 8 7 6 7 8 10 11 11 11 10 13 17 18 18 19 19 19 16 14 12 11 10 10 10 10 10 10
13 13 13 12 10 10 9 9 8 8 8 7 7 9 10 10 8 8 6 4 4 6 8 8 10 13 14 14 13 12 11 10 9 8 8 8 7 7 7 8 9 11 12 12 13 13 16 17 16 15 13 12 15 16 14 12 11 10 9 8 9 9 8
13 13 13 13 12 11 11 10 9 10 11 9 8 8 10 11 10 9 7 5 4 5 7 8 9 11 13 13 13 12 12 11 10 10 8 7 7 7 8 9 9 11 12 13 14 16 17 16 14 14 10 5 6 10 12 12 10 9 8 8 8 8 7
14 13 13 13 13 13 12 10 8 9 11 11 9 9 10 11 11 10 8 6 4 4 6 8 8 9 11 11 10 10 10 11 12 12 10 8 7 8 10 11 10 11 12 13 16 16 16 14 12 11 8 5 2 4 6 9 9 9 8 7 8 7 7
15 14 13 14 14 13 12 9 8 8 10 11 10 10 11 11 11 10 8 6 5 5 7 9 9 10 10 10 10 9 9 9 10 11 11 11 9 8 9 11 10 11 12 13 15 15 13 11 10 8 6 5 3 0 2 4 6 9 9 8 8 8 8
16 14 14 15 14 13 11 8 8 9 11 11 11 12 12 12 11 10 9 7 6 7 9 11 12 12 12 12 11 11 10 10 10 12 14 14 12 9 8 9 9 10 12 12 13 13 11 10 9 9 8 8 7 5 4 0 2 7 10 9 9 9 10
17 15 14 15 14 13 10 8 9 10 11 11 11 12 13 13 12 11 10 9 9 10 12 13 13 13 13 13 13 13 12 11 10 12 14 15 14 12 10 9 9 10 10 10 11 11 10 9 9 10 10 11 12 10 8 5 1 3 7 9 9 9 10
17 15 15 15 15 13 10 9 10 10 11 10 11 12 14 14 13 12 12 13 13 13 14 14 14 13 13 12 13 12 12 11 11 11 13 14 14 13 12 11 10 10 10 10 11 11 11 10 10 10 10 11 13 13 11 9 5 2 4 8 9 9 9
18 16 16 16 15 13 11 10 9 9 9 10 12 13 15 16 15 14 15 16 16 15 15 15 14 13 13 11 11 10 10 10 9 9 10 10 11 12 12 12 11 11 11 11 12 12 12 12 12 12 12 10 12 14 14 11 8 6 6 7 9 9 8
19 17 17 18 16 14 13 10 8 9 11 12 13 15 17 17 17 17 18 18 18 17 16 16 15 13 12 11 10 10 10 9 8 8 8 7 8 9 10 11 12 12 12 11 12 13 13 12 12 11 11 11 13 16 17 13 9 8 8 8 9 9 7
21 19 20 19 17 16 14 10 9 10 11 12 13 15 17 18 18 19 19 18 18 18 17 16 14 13 12 11 10 10 10 9 7 7 7 7 8 9 9 10 11 11 12 11 11 12 11 10 9 9 10 11 13 16 16 13 10 8 7 8 9 9 9
24 23 23 20 18 18 16 13 13 12 12 12 13 15 17 18 18 18 19 18 18 17 16 15 13 12 12 11 11 11 9 8 7 6 6 7 8 9 9 10 10 11 11 10 10 11 11 10 8 9 10 12 14 15 15 12 10 8 7 7 8 9 9
24 25 26 23 20 19 18 18 16 15 14 13 14 15 17 18 18 18 19 18 17 16 15 14 13 12 11 11 12 12 10 9 8 7 8 8 9 10 10 10 10 11 12 12 11 11 12 12 10 10 12 13 14 14 13 12 10 9 8 8 9 9 9
22 26 27 26 25 24 23 22 19 18 18 18 17 16 16 18 19 19 19 18 16 16 16 15 13 11 10 10 12 13 13 12 10 10 10 11 12 12 12 12 12 12 12 12 12 12 12 12 12 12 12 12 12 12 12 11 10 10 10 10 10 10 10
25 27 26 28 32 29 25 23 21 20 20 21 21 20 18 19 21 21 20 19 18 17 17 16 14 12 11 10 11 13 14 14 14 13 13 13 14 15 16 16 15 15 15 14 14 14 14 12 12 12 12 12 11 11 11 11 11 11 11 11 12 12 12
24 24 24 28 32 30 25 24 22 22 22 22 24 24 22 21 22 22 22 21 20 19 18 17 15 14 12 12 12 14 15 16 17 17 16 16 16 17 18 19 19 19 19 17 16 17 16 14 13 12 13 14 13 13 12 11 11 11 12 12 13 13 13
23 24 25 27 29 28 26 26 25 23 24 25 26 26 24 22 23 23 22 22 21 20 19 18 16 15 14 14 14 15 16 17 19 20 20 19 19 19 19 21 22 22 21 20 19 19 18 16 14 13 14 15 16 16 14 13 13 13 13 13 14 14 13
24 24 24 24 25 25 24 24 24 23 23 24 25 26 24 23 23 23 22 22 22 21 20 19 17 16 16 15 16 17 17 19 20 21 22 22 21 21 21 22 23 23 23 22 20 20 19 18 16 15 15 16 16 17 17 16 15 15 15 16 16 16 16
20 20 20 21 21 21 20 21 21 21 20 21 23 24 23 23 24 24 23 22 22 21 20 19 18 18 18 18 18 19 19 19 20 21 22 23 23 23 24 24 24 23 23 22 21 19 19 19 18 18 17 16 16 16 17 17 17 16 16 16 16 16 16
19 19 20 20 20 20 20 20 20 20 19 19 22 22 22 24 26 25 24 23 21 21 20 19 19 19 19 19 19 20 20 20 20 20 22 24 25 25 25 24 23 23 23 22 20 20 19 19 19 18 17 16 15 15 15 15 15 15 14 14 14 14 13
18 18 18 19 20 20 20 19 20 20 20 22 23 23 24 24 25 25 26 25 23 22 20 20 20 20 20 20 20 20 21 21 21 22 23 25 25 23 21 20 20 21 21 20 20 20 20 19 18 17 16 15 13 13 13 13 12 12 12 12 12 12 13
13 14 14 14 16 17 16 16 18 20 21 23 22 23 24 24 24 26 27 25 24 23 22 22 22 22 22 22 22 22 22 22 23 23 24 24 22 20 18 17 18 18 18 18 19 19 18 17 16 14 13 13 12 11 11 11 11 11 10 10 10 11 11
8 9 9 9 9 10 11 13 15 18 20 21 19 17 19 22 23 23 22 20 20 21 21 21 22 22 22 22 22 23 23 24 24 23 22 21 20 18 17 17 17 16 16 17 17 17 16 15 14 13 13 12 11 11 11 10 10 10 9 9 9 9 9
6 7 7 7 7 8 9 10 11 12 14 15 14 12 13 16 18 18 17 16 18 19 19 19 20 21 22 22 23 23 23 23 22 21 21 20 19 19 18 17 16 16 16 16 15 15 15 14 13 12 12 13 12 11 10 10 9 9 10 10 10 9 9
8 8 8 7 6 6 6 7 8 9 9 8 8 9 10 12 14 15 15 15 17 17 18 19 20 21 22 22 22 22 21 21 21 20 21 21 20 20 19 17 16 16 16 15 15 15 15 13 12 12 12 13 12 11 10 10 10 10 11 11 10 10 10
8 8 8 7 6 5 4 4 5 7 8 8 8 8 9 10 11 12 13 14 15 16 17 18 18 19 19 19 19 19 19 20 21 21 22 22 22 21 20 19 18 18 17 17 16 15 15 14 13 13 13 12 11 10 10 10 11 12 12 11 11 11 12
5 4 4 4 4 3 3 3 4 5 6 7 8 8 8 9 9 9 9 11 12 12 13 15 15 15 15 16 17 17 18 19 21 21 22 22 22 23 23 22 20 19 18 18 18 17 16 15 14 14 13 11 11 11 11 11 11 12 12 12 12 13 13
0 0 0 0 0 1 2 3 4 5 6 7 8 9 10 11 10 10 9 9 10 11 11 12 12 13 13 15 17 18 19 20 21 22 22 23 24 24 24 23 21 21 20 20 20 19 18 17 16 14 13 12 11 11 10 10 11 11 12 13 13 13 14
6 6 6 6 6 6 6 7 7 7 7 8 9 9 10 11 12 12 12 11 10 11 12 14 14 14 15 17 19 21 22 22 23 24 26 26 26 25 24 23 21 21 22 22 22 21 20 18 16 14 13 12 11 11 10 11 11 12 13 14 14 14 14
14 14 13 13 13 12 12 12 13 12 12 11 11 10 10 11 12 13 13 13 12 12 14 17 18 18 18 20 22 24 25 25 25 26 27 28 27 26 24 23 22 22 23 23 23 22 20 17 15 14 13 12 11 11 11 11 12 13 14 14 14 13 13
Wind_Direction
174 167 165 167 169 167 166 166 165 158 145 143 160 170 172 181 188 185 184 187 192 194 198 204 203 200 193 191 196 193 183 182 187 193 208 217 208 202 208 207 213 228 208 198 205 204 180 155 143 138 133 141 145 132 131 131 103 94 87 40 12 34 63
183 179 171 171 173 172 171 167 163 155 138 121 138 161 169 173 178 177 175 180 188 191 193 203 212 202 179 178 187 187 182 182 183 182 195 212 205 205 211 208 215 210 184 185 190 203 194 162 149 148 143 142 134 113 98 99 92 90 90 70 53 49 58
186 186 179 177 176 173 171 167 165 160 153 144 144 161 172 174 176 174 171 174 183 190 195 208 219 203 171 169 177 178 182 186 187 182 184 198 202 207 215 215 213 193 180 189 186 181 184 167 158 156 152 147 130 112 104 104 99 97 91 78 73 70 70
188 191 187 182 178 175 173 171 172 169 169 179 172 167 175 181 185 183 180 181 189 202 209 209 203 182 166 167 172 170 177 184 185 184 182 188 194 198 208 212 214 209 203 206 193 174 174 172 161 152 148 143 129 119 116 111 100 96 92 86 83 82 82
197 197 192 186 181 179 177 175 175 177 183 197 203 185 181 185 190 190 189 203 238 236 210 189 176 167 163 165 168 170 172 173 173 176 177 180 185 188 195 197 200 208 212 212 197 174 175 183 166 148 141 139 130 120 116 109 102 96 92 90 88 85 83
208 204 197 191 186 183 181 179 178 185 198 213 220 201 184 183 191 197 200 228 273 224 186 174 170 167 165 165 169 174 173 171 171 172 174 174 176 182 188 190 188 190 190 189 186 175 175 184 168 147 139 138 131 124 119 113 107 102 96 94 91 89 86
214 204 196 192 191 190 187 183 180 186 203 221 212 196 183 184 196 205 221 256 204 171 166 171 175 173 172 173 175 179 177 174 175 177 181 178 174 176 181 182 178 175 174 174 175 176 178 180 170 152 141 136 128 122 120 117 113 109 106 102 97 95 94
216 202 194 195 197 194 193 191 180 174 188 198 192 190 189 192 206 216 236 250 173 149 151 164 174 177 178 179 179 181 178 173 178 183 184 182 177 175 173 173 172 170 171 171 166 170 179 180 172 161 152 142 132 125 121 120 119 117 115 112 107 103 100
212 202 197 200 204 203 202 198 183 172 180 187 183 192 199 201 213 225 235 234 169 144 147 152 165 177 182 184 183 184 179 173 180 185 184 188 185 177 169 166 167 165 165 165 159 160 172 176 170 164 163 151 136 131 131 130 126 124 127 127 120 113 109
206 204 204 206 209 209 203 199 193 177 171 177 182 192 203 207 216 228 233 224 181 155 153 146 148 164 176 185 188 189 188 185 189 191 191 197 191 179 172 163 156 155 157 156 152 157 168 172 169 163 159 138 110 120 136 140 135 130 132 137 133 126 124
205 207 210 212 212 205 196 197 207 191 170 173 182 189 201 208 215 224 228 220 194 166 157 151 146 149 160 171 176 179 183 186 193 197 196 191 182 177 173 164 153 149 150 150 150 159 170 172 170 167 163 161 91 74 116 130 135 137 132 135 142 143 146
206 211 215 216 211 201 195 197 203 196 178 174 184 189 195 203 208 214 216 213 199 171 159 157 154 150 149 151 151 154 158 166 180 187 182 174 173 177 175 168 161 152 147 149 153 163 173 177 180 185 191 206 218 256 84 100 123 141 135 129 139 148 154
206 213 216 214 207 198 195 191 180 180 177 176 184 188 189 194 200 203 202 198 188 169 159 156 154 150 147 143 140 140 142 150 164 170 169 170 172 180 180 168 163 158 153 154 159 166 177 186 201 212 222 235 236 228 224 238 92 134 139 132 136 147 152
205 210 212 209 202 193 186 174 166 171 174 174 181 185 185 187 194 197 189 177 171 164 158 154 151 149 147 146 144 142 142 147 157 165 172 176 178 183 186 171 161 164 166 169 170 173 182 191 207 220 230 240 239 231 225 224 203 136 152 150 148 155 158
201 203 206 202 193 186 178 165 162 168 173 175 179 183 183 181 186 192 180 167 164 164 161 156 153 152 153 154 153 151 151 152 156 164 172 181 185 189 193 187 176 174 179 188 190 190 197 205 216 225 234 241 235 230 225 220 232 253 199 177 167 168 168
195 200 200 192 185 185 181 167 162 166 172 179 181 182 182 178 180 183 176 168 166 167 166 163 162 163 164 167 168 165 166 166 168 170 170 176 184 191 198 201 199 196 196 205 212 214 219 226 232 236 238 234 225 226 224 219 231 253 239 207 186 178 172
188 192 189 184 184 187 183 171 166 169 172 180 185 185 184 180 178 180 178 175 173 172 174 174 174 177 179 183 186 185 185 185 188 193 190 185 188 193 201 207 211 214 215 220 225 228 231 233 236 234 228 217 213 221 222 216 222 238 237 220 197 181 172
182 182 183 188 188 183 181 178 175 176 180 188 193 193 190 186 184 184 183 182 180 178 181 183 186 190 193 199 203 203 202 199 200 209 213 211 210 208 210 216 221 223 223 226 231 235 236 236 233 225 216 206 204 211 213 208 206 213 218 215 199 186 180
179 178 183 189 183 174 176 180 180 187 195 198 200 201 200 196 194 194 192 190 190 189 190 195 200 203 206 213 218 218 215 213 217 228 234 236 231 221 218 226 234 237 237 236 236 238 237 231 224 216 209 203 200 203 207 205 201 198 199 203 200 197 197
181 182 186 187 183 181 184 187 192 200 201 199 205 209 209 207 205 204 203 200 200 201 202 206 210 213 217 223 227 227 225 226 232 240 247 252 248 237 231 233 238 241 246 247 242 234 230 225 221 215 209 206 207 210 213 211 205 198 197 201 206 211 217
198 198 197 196 195 193 195 201 209 209 198 197 207 217 220 217 214 211 209 207 208 209 212 215 216 216 221 226 231 232 231 232 236 242 248 253 252 248 246 247 245 240 242 248 247 236 227 223 223 223 218 213 213 216 219 219 217 211 208 211 215 220 227
207 208 206 202 198 197 202 210 212 204 199 201 208 216 225 224 219 214 210 208 211 213 214 218 221 220 223 232 237 236 234 234 237 242 248 250 249 248 250 253 252 247 243 245 246 240 233 227 223 224 225 224 222 223 225 228 228 226 224 222 220 223 230
201 203 200 196 196 201 210 211 204 199 204 211 213 216 224 225 220 216 213 211 213 215 218 221 225 228 233 245 250 246 243 243 244 246 249 249 248 247 249 252 252 251 249 246 244 241 238 234 226 221 222 225 230 232 232 233 233 232 233 231 228 228 231
194 195 193 194 200 208 214 214 212 212 214 216 218 221 224 224 221 219 220 220 220 221 223 225 229 233 239 249 254 252 252 254 254 252 252 254 253 252 252 253 252 250 249 245 241 240 239 237 229 220 217 221 227 232 234 235 235 235 238 238 237 238 243
191 191 192 197 203 207 211 215 218 218 217 216 218 221 221 221 221 222 224 227 229 230 231 232 233 237 244 250 253 254 256 259 259 256 256 257 258 257 259 260 255 249 245 242 238 236 237 234 229 224 221 220 224 229 232 235 237 239 242 242 244 247 253
196 197 201 206 209 211 216 221 220 217 217 219 219 219 220 221 223 225 226 229 232 234 234 236 238 242 248 251 253 256 259 260 260 259 259 260 260 260 263 262 254 244 240 237 233 230 231 231 231 230 228 227 228 229 232 235 237 240 241 242 245 249 253
206 210 213 214 217 219 220 220 219 217 220 222 220 218 219 221 224 226 229 231 234 236 238 240 243 247 251 253 255 257 260 261 263 265 266 265 264 264 264 259 247 238 235 231 226 225 226 228 230 232 233 235 235 231 230 231 233 235 238 240 244 247 251
211 218 221 220 219 220 218 215 215 219 224 225 222 219 221 224 225 228 231 232 234 237 241 243 246 249 253 256 257 258 260 261 265 268 269 268 266 263 258 247 235 229 228 226 224 225 226 227 228 230 233 234 232 228 227 229 232 234 237 240 243 247 251
196 206 216 218 216 219 222 221 223 227 228 228 226 221 222 228 231 233 235 235 235 238 240 243 247 250 254 256 256 256 258 261 265 268 265 262 259 253 244 232 223 220 222 223 223 222 221 221 222 222 222 222 224 228 231 234 237 240 243 246 249 253 257
166 173 184 189 189 195 201 209 221 228 229 231 231 223 221 229 237 240 242 242 241 241 243 245 248 251 253 254 254 255 258 262 266 264 255 248 244 238 232 225 219 217 218 218 218 216 214 214 215 215 217 222 230 235 238 240 243 246 251 256 259 262 265
123 136 150 152 154 167 173 179 197 212 222 229 232 230 229 235 241 246 248 247 246 247 247 249 251 252 253 254 255 256 258 260 259 251 240 235 231 228 227 224 218 215 217 218 218 217 214 213 215 221 227 233 238 241 242 246 251 256 261 264 267 270 271
105 110 117 120 130 153 164 169 180 190 200 210 217 224 231 236 242 247 248 248 250 251 251 252 252 253 254 254 255 255 253 250 245 237 231 229 227 224 223 222 219 216 218 223 225 221 217 221 229 235 236 236 237 240 245 251 256 261 264 267 270 274 278
108 107 109 109 113 127 146 166 184 192 197 201 204 211 221 229 237 245 248 248 249 252 254 254 254 253 252 251 249 246 242 238 235 231 228 227 227 227 226 224 223 221 222 226 229 228 228 235 240 239 237 236 237 241 246 252 257 262 266 271 275 279 283
109 106 104 103 107 126 157 177 192 203 210 211 210 211 218 225 230 239 248 252 251 253 256 255 251 247 244 242 239 237 235 235 234 233 231 231 231 232 232 232 229 227 226 228 231 235 237 238 237 233 231 231 234 239 244 248 254 262 268 273 279 284 288
212 225 260 267 214 225 230 224 220 223 223 220 220 222 226 228 226 228 239 250 254 256 258 254 247 241 238 237 237 236 236 238 239 240 240 239 239 239 238 238 237 237 236 233 232 233 233 231 229 226 225 227 231 238 246 253 260 268 274 279 285 290 294
283 275 272 269 267 264 260 256 253 251 245 237 235 238 242 242 239 236 236 239 247 256 258 254 248 243 239 238 238 239 241 243 246 249 250 249 247 244 241 239 240 241 239 234 230 227 223 221 221 222 224 228 233 237 245 254 261 268 274 279 284 288 291
293 289 282 278 277 275 270 266 265 266 265 263 264 267 266 262 259 256 250 242 239 246 253 254 252 249 244 242 242 243 245 247 249 252 254 253 249 244 241 241 241 241 239 234 226 219 217 218 221 225 226 227 230 236 243 251 258 263 268 273 277 281 285